Location: Utrecht
(52.0907°N, 5.1214°E)
Time: 08:38:13
(UTC+02:00)

KKS-1 - Pass Details

Date: 04 July 2022
Orbit: 634 x 649 km, 98.2° (Epoch: 15 August)

Event Time Altitude Azimuth Distance (km) Brightness Sun altitude
Rises 23:17:59 0° 20° (NNE) 2,979 ? -8.6°
Reaches altitude 10° 23:20:20 10° 27° (NNE) 2,062 ? -8.8°
Maximum altitude 23:24:35 40° 98° (E) 951 ? -9.1°
Enters shadow 23:28:37 11° 168° (SSE) 1,976 ? -9.5°
